Location: Paddlesworth
(51.1000°N, 1.1333°E)
Time: 20:33:40
(UTC+00:00)

Cosmos 1818 - Pass Details

Date: 11 May 2021
Orbit: 771 x 802 km, 65.0° (Epoch: 21 June)

Event Time Altitude Azimuth Distance (km) Brightness Sun altitude
Rises 22:23:40 0° 318° (NW) 3,321 8.1 -18.1°
Reaches altitude 10° 22:26:07 10° 318° (NW) 2,388 7.1 -18.3°
Maximum altitude 22:31:38 88° 228° (SW) 810 3.5 -18.6°
Enters shadow 22:34:11 33° 142° (SE) 1,321 4.2 -18.7°
